Regional Weather Roundup
Issued by NWS Albany, NY

Home | Current Version | Previous Version | Text Only | Print | Product List | Glossary On
Versions: 1 2 3 4 5 6 7 8 9 10 11 12 13 14 15 16 17 18 19 20 21 22 23 24 25 26 27 28 29 30 31 32 33 34 35 36 37 38 39 40 41 42 43 44 45 46 47 48 49 50
000
ASUS41 KALY 282010
RWRALY

NEW YORK STATE HOURLY WEATHER ROUNDUP
NATIONAL WEATHER SERVICE ALBANY NY
400 PM EDT TUE MAR 28 2017

NOTE: "FAIR" INDICATES FEW OR NO CLOUDS BELOW 12,000 FEET WITH NO
SIGNIFICANT WEATHER AND/OR NO OBSTRUCTIONS TO VISIBILITY.

NYZ032-033-038>043-046>054-057>066-NYZ062>081-082-084-282100-
EAST


CITY           SKY/WX    TMP DP  RH WIND       PRES   REMARKS
ALBANY         LGT RAIN  48  44  86 S8        29.91S FOG
GLENS FALLS    LGT RAIN  49  44  83 S12       29.89F
POUGHKEEPSIE   LGT RAIN  44  43  96 NE7       29.89F FOG
NEWBURGH       LGT RAIN  45  45 100 E8        29.90F FOG
MONTGOMERY     LGT RAIN  46  44  93 NE8       29.87F
WHITE PLAINS   LGT RAIN  43  41  93 E12       29.85F FOG
ISLIP          LGT RAIN  44  44 100 E8        29.87F
NEW YORK CITY  CLOUDY    42  39  89 NE18      29.88F
CENTRAL PARK   CLOUDY    43  41  93 E10       29.89F
$$

NYZ005>009-017-018-044>046-055-056-282100-
CENTRAL


CITY           SKY/WX    TMP DP  RH WIND       PRES   REMARKS
FULTON         CLOUDY    43  41  93 N6        29.94R
SYRACUSE       CLOUDY    47  45  93 NW7       29.92R FOG
ROME           CLOUDY    49  45  86 W7        29.91S
ELMIRA         CLOUDY    51  46  83 N14       29.90R
BINGHAMTON     LGT RAIN  49  48  97 N8        29.87S FOG
MONTICELLO     CLOUDY    45  43  93 E6        29.87F
$$

NYZ026>034-041>043-087-282100-
NORTH


CITY           SKY/WX    TMP DP  RH WIND       PRES   REMARKS
WATERTOWN      CLOUDY    42  41  96 NE9       29.96R
FORT DRUM      NOT AVBL
MASSENA        CLOUDY    42  39  89 NW6       29.98R
SARANAC LAKE   CLOUDY    43  43 100 CALM      29.88R FOG
PLATTSBURGH    LGT RAIN  37  36  96 N7        29.93R FOG     WCI  32
$$

NYZ001>004-010>016-019>021-085-282100-
WEST


CITY           SKY/WX    TMP DP  RH WIND       PRES   REMARKS
NIAGARA FALLS  CLOUDY    47  38  71 N9        29.99R
BUFFALO        CLOUDY    46  39  76 N9        29.98S
DUNKIRK        CLOUDY    44  39  82 N6        30.00R
JAMESTOWN      CLOUDY    43  39  87 N14       29.94S
WELLSVILLE     CLOUDY    50  48  93 N8        29.92R FOG
ROCHESTER      CLOUDY    45  43  93 NE10      29.98R
PENN YAN       CLOUDY    47  42  83 NW7       29.94R
$$

             KEY
       WCI = WIND CHILL INDEX
       VSB = VISIBILITY
       HX  = HEAT INDEX
$$



USA.gov is the U.S. government's official web portal to all federal, state and local government web resources and services.